Regional Weather Roundup
Issued by NWS

Home | Current Version | Previous Version | Text Only | Print | Product List | Glossary Off
Versions: 1 2 3 4 5 6 7 8 9 10 11 12 13 14 15 16 17 18 19 20 21 22 23 24 25 26 27 28 29 30 31 32 33 34 35 36 37 38 39 40 41 42 43 44 45 46 47 48 49 50

000
ASUS43 KMKX 231711
RWRWI

WISCONSIN REGIONAL WEATHER ROUNDUP
NATIONAL WEATHER SERVICE MILWAUKEE/SULLIVAN WI
1100 AM CST THU NOV 23 2017

NOTE: "FAIR" INDICATES FEW OR NO CLOUDS BELOW 12,000 FEET WITH NO
SIGNIFICANT WEATHER AND/OR OBSTRUCTIONS TO VISIBILITY.

WIZ001-002-006>008-014>016-023>028-231800-
NORTHWEST WISCONSIN

CITY           SKY/WX    TMP DP  RH WIND       PRES   REMARKS
SUPERIOR ARPT  CLOUDY    30  23  74 SW7       29.91F WCI  23
ASHLAND        CLOUDY    32  19  58 SW10      29.90F WCI  24
HAYWARD        CLOUDY    32  19  58 SW8       29.90S WCI  25
SIREN          SUNNY     33  20  58 CALM      29.91F
CUMBERLAND     SUNNY     32  19  59 CALM      29.91F
RICE LAKE      SUNNY     33  22  65 CALM      29.94S
CHETEK         SUNNY     33  21  62 CALM      29.92F
LADYSMITH      SUNNY     33  21  61 W3        29.93S
EAU CLAIRE     SUNNY     34  19  54 W3        29.94R
MENOMONIE      SUNNY     35  20  55 W3        29.95R
NEW RICHMOND   SUNNY     34  20  56 CALM      29.94F
OSCEOLA        SUNNY     33  21  62 CALM      29.97F
$$

WIZ003>005-009-010-017-018-231800-
NORTH CENTRAL WISCONSIN

CITY           SKY/WX    TMP DP  RH WIND       PRES   REMARKS
MANITOWISH WTR SUNNY     32  20  61 SW7       29.85F WCI  25
ARBOR VITAE    SUNNY     34  22  61 W6        29.85F WCI  29
WOODRUFF       SUNNY     34  22  61 W6        29.85F WCI  29
RHINELANDER    SUNNY     33  20  58 W8        29.87F WCI  26
EAGLE RIVER    SUNNY     32  19  58 W8        29.85F WCI  25
LAND O LAKES   SUNNY     33  19  57 W6        29.86F WCI  27
PHILLIPS       SUNNY     32  20  62 SW3       29.88F
TOMAHAWK       SUNNY     33  18  55 W6        29.88F WCI  27
MEDFORD        SUNNY     32  19  58 NW3       29.89F
MERRILL        SUNNY     33  20  59 W3        29.89F
$$

WIZ029-030-035-036-043>047-231800-
CENTRAL WISCONSIN

CITY           SKY/WX    TMP DP  RH WIND       PRES   REMARKS
WAUSAU         SUNNY     34  19  54 NW5       29.89F WCI  30
MOSINEE        MOSUNNY   34  19  55 W6        29.92F WCI  29
MARSHFIELD     SUNNY     36  18  48 W7        29.90F WCI  30
STEVENS POINT  SUNNY     33  18  52 SW5       29.91F WCI  29
WAUPACA        SUNNY     40  19  42 W5        29.93F
WAUTOMA        SUNNY     38  19  46 W8        29.94R WCI  32
WISC RAPIDS    SUNNY     36  19  50 NW3       29.93F
CAMP DOUGLAS   SUNNY     39  19  43 NW3       29.92F
$$

WIZ011>013-019>022-031-037>040-048>050-231800-
NORTHEAST WISCONSIN

CITY           SKY/WX    TMP DP  RH WIND       PRES   REMARKS
ANTIGO         SUNNY     33  19  56 W6        29.88S WCI  27
SHAWANO        SUNNY     39  20  46 W8        29.90F WCI  33
OCONTO         SUNNY     37  20  50 W7        29.91F WCI  31
STURGEON BAY   PTSUNNY   35  22  58 W12       29.92F WCI  27
GREEN BAY      MOSUNNY   38  22  52 VRB7      29.93S WCI  33
MANITOWOC      SUNNY     38  20  48 W10       29.94S WCI  31
APPLETON       SUNNY     37  16  41 W8        29.92R WCI  31
CLINTONVILLE   SUNNY     37  18  44 SW6       29.90F WCI  33
OSHKOSH        SUNNY     38  22  52 W7        29.93R WCI  33
$$

WIZ032>034-041-042-053>061-231800-
SOUTHWEST WISCONSIN

CITY           SKY/WX    TMP DP  RH WIND       PRES   REMARKS
LA CROSSE      SUNNY     37  20  50 VRB3      29.94F
SPARTA         SUNNY     37  21  51 CALM      29.94F
VIROQUA        SUNNY     35  22  58 CALM      29.92F
BOSCOBEL       SUNNY     39  20  46 S3        29.95F
PRAIRIE DU CHI SUNNY     37  19  47 CALM      29.95F
PLATTEVILLE    SUNNY     38  23  55 SW3       29.94F
$$

WIZ056-057-062-063-064-067-068-231800-
SOUTH CENTRAL WISCONSIN

CITY           SKY/WX    TMP DP  RH WIND       PRES   REMARKS
REEDSBURG      SUNNY     37  20  49 W6        29.93S WCI  33
BARABOO/DELLS  SUNNY     38  19  45 W7        29.93R WCI  32
LONE ROCK      SUNNY     39  21  48 W3        29.95S
MINERAL POINT  SUNNY     37  23  56 W5        29.93S WCI  34
MADISON        SUNNY     37  21  52 VRB6      29.93F WCI  32
MIDDLETON      SUNNY     41  20  44 SW3       29.93S
WATERTOWN      SUNNY     38  22  51 SW10      29.93F WCI  31
MONROE         SUNNY     37  21  52 SW7       29.93F WCI  32
JANESVILLE     SUNNY     39  21  48 SW9       29.95F WCI  33
$$

WIZ051-052-058>065-066-070>072-231800-
SOUTHEAST WISCONSIN

CITY           SKY/WX    TMP DP  RH WIND       PRES   REMARKS
MILWAUKEE      MOSUNNY   40  23  50 SW12      29.94F WCI  33
WAUKESHA       SUNNY     36  19  51 SW7       29.93F WCI  30
MILWAUKEE/TIMM SUNNY     37  18  44 SW10      29.95F WCI  30
RACINE         SUNNY     41  22  46 SW12      29.96F
BURLINGTON     SUNNY     42  28  58 SW12      29.94F
KENOSHA        SUNNY     41  21  44 SW15      29.95F
FOND DU LAC    SUNNY     39  20  46 W8        29.94R WCI  33
SHEBOYGAN      SUNNY     39  21  48 W10       29.93F WCI  32
WEST BEND      SUNNY     37  21  52 SW8       29.93R WCI  31
JUNEAU         SUNNY     36  21  54 SW9       29.94S WCI  29
$$

LSZ147-162-231800-
LAKE SUPERIOR

STATION/POSITION TIME  TEMP    WIND        PRES    WAVE
                       AIR SEA DIR/SP/G            HT/PER
                 (UTC) (F)     (DEG/KT/KT) (MB)    (FT/S)
DEVILS ISLAND    1700   31     260/ 18/ 23 1012.6R
SAXON HARBOR     1630   32     210/  7/ 11 1011.9F
$$

LMZ867-665-643>646-231800-
LAKE MICHIGAN

STATION/POSITION TIME  TEMP    WIND        PRES    WAVE
                       AIR SEA DIR/SP/G            HT/PER
                 (UTC) (F)     (DEG/KT/KT) (MB)    (FT/S)
N MID LAKE BUOY  1650   35 47  250/ 16/ 19 1013.5F   3/ 5
NORTHPORT PIER   1702   35     280/  6/ 14 1012.5
KEWAUNEE LAKESHO 1648   37     270/  6/ 12 1012.8R
SHEBOYGAN LAKESH 1700   37     250/  7/ 10 1014.2F
PORT WASHINGTON  1630   39     240/  8/ 14 1014.6F
MILWAUKEE LAKESH 1650   38     250/ 10/ 12   N/A
S MID LAKE BUOY  1550   39 47  250/ 17/ 21 1016.1F   4/ 5
KENOSHA   LAKESH 1700   40     230/ 11/ 15 1014.2
$$

TC  - TEMPERATURE IN CELSIUS
VSB - VISIBILITY IN STATUTE MILES
WCI - WIND CHILL INDEX
HX  - HEAT INDEX





USA.gov is the U.S. government's official web portal to all federal, state and local government web resources and services.